[[{"header":{"parameterUnit":"m.s-1","parameterCategory":1,"la1":30.2991,"la2":30.254,"lo1":-89.0895,"lo2":-89.0444,"dy":0.0017,"dx":0.0017,"nx":28,"ny":28,"refTime":"2025-07-22T21:00:00:Z","depth":0,"parameterNumber":2,"parameterNumberName":"U-component_of_WINDS"},"data":[0,0,0,0,0,0,0,0,0,0,0,0,0,0,0,0,0,0,0,0,0,0,0,0,0,0,0,0,0,0,0,0,0,0,0,0,0,0,0,0,0,0,0,0,0,0,0,0,0,0,0,0,0,0,0,0,0,0,-1.3785,-1.3786,0,-1.3932,-1.3934,-1.3936,-1.3988,-1.3988,-1.3987,-1.3987,-1.4143,-1.4147,-1.4152,0,0,0,0,0,0,0,0,0,0,0,0,0,-1.3552,-1.3556,-1.3784,-1.3786,-1.3788,-1.3932,-1.3934,-1.3936,-1.3988,-1.3988,-1.3987,-1.3986,-1.4141,-1.4146,-1.4152,0,0,0,0,0,0,0,0,0,0,0,0,0,-1.3672,-1.3558,-1.3784,-1.3831,-1.3837,-1.3932,-1.3934,-1.3937,-1.3989,-1.3988,-1.3987,-1.3986,-1.4139,-1.4146,-1.4153,-1.4213,0,0,-1.4174,-1.4177,0,0,0,0,0,0,0,0,-1.3665,-1.3681,-1.3823,-1.3828,-1.3835,-1.3941,-1.391,-1.4029,-1.3989,-1.3931,-1.3987,-1.3986,-1.4076,-1.4089,-1.4118,-1.422,-1.4227,-1.4175,-1.4179,-1.4182,-1.4184,0,0,0,0,0,0,0,-1.3657,-1.3674,-1.3843,-1.3825,-1.3832,-1.3847,-1.3863,-1.3933,-1.4007,-1.3936,-1.394,-1.3957,-1.408,-1.4111,-1.4122,-1.4229,-1.4175,-1.4181,-1.4185,-1.4188,-1.439,-1.4391,0,0,0,0,0,0,-1.364,-1.3667,-1.3838,-1.3848,-1.3746,-1.3852,-1.387,-1.3908,-1.4006,-1.402,-1.3957,-1.3959,-1.41,-1.4114,-1.4128,-1.4206,-1.4182,-1.4189,-1.4193,-1.4389,-1.4391,-1.4392,0,0,0,0,0,0,-1.3635,-1.3655,-1.3832,-1.3759,-1.3782,-1.3857,-1.3899,-1.3911,-1.3943,-1.4022,-1.4036,-1.3976,-1.41,-1.4118,-1.4192,-1.4212,-1.4192,-1.4198,-1.4388,-1.439,-1.4391,-1.4362,0,0,0,0,0,0,-1.3628,-1.3652,-1.3674,-1.3759,-1.3786,-1.3892,-1.39,-1.3915,-1.3954,-1.3957,-1.4043,-1.4057,-1.41,-1.4181,-1.4198,-1.4222,-1.4204,-1.4386,-1.4389,-1.4391,-1.4361,-1.4362,-1.4363,0,0,0,0,0,-1.3619,-1.3661,-1.3675,-1.3696,-1.3815,-1.3893,-1.3909,-1.3957,-1.3956,-1.398,-1.4031,-1.4054,-1.4207,-1.4188,-1.4208,-1.4234,-1.4385,-1.4388,-1.439,-1.4361,-1.4362,-1.4363,0,0,0,0,0,0,-1.3578,-1.3672,-1.369,-1.3759,-1.3817,-1.3901,-1.3933,-1.3956,-1.4017,-1.4018,-1.4077,-1.4096,-1.4165,-1.4207,-1.4184,-1.4298,-1.4298,-1.4305,-1.4268,-1.427,-1.4271,-1.426,-1.4209,0,0,0,0,0,-1.3577,-1.363,-1.3711,-1.3764,-1.3793,-1.3857,-1.3893,-1.3926,-1.3989,-1.4014,-1.4071,-1.4133,-1.4195,-1.4235,-1.4296,-1.4368,-1.4388,-1.4395,-1.4396,-1.4397,-1.4402,-1.4446,-1.445,-1.44,-1.44,-1.44,0,0,-1.3575,-1.3633,-1.3664,-1.3758,-1.3806,-1.3863,-1.3878,-1.3936,-1.3979,-1.4024,-1.4096,-1.414,-1.4213,-1.4286,-1.4321,-1.4323,-1.4421,-1.44,-1.44,-1.4405,-1.4449,-1.4453,-1.4458,-1.4402,-1.4402,-1.4402,0,0,-1.3601,-1.3649,-1.37,-1.3749,-1.3823,-1.3866,-1.3878,-1.3959,-1.399,-1.4063,-1.4098,-1.4152,-1.4257,-1.4308,-1.4348,-1.4396,-1.442,-1.4414,-1.442,-1.4461,-1.4465,-1.4469,-1.4488,-1.4494,-1.4419,-1.4419,-1.4419,0,-1.359,-1.3674,-1.3724,-1.3781,-1.3822,-1.3864,-1.3917,-1.3963,-1.4053,-1.4082,-1.4082,-1.4217,-1.4269,-1.4356,-1.4368,-1.4398,-1.4416,-1.4405,-1.446,-1.4465,-1.4469,-1.4488,-1.4494,-1.4418,-1.4418,-1.4418,-1.4419,0,-1.3658,-1.3716,-1.3749,-1.3834,-1.388,-1.3934,-1.3994,-1.4034,-1.4063,-1.4107,-1.4183,-1.4247,-1.4324,-1.4347,-1.4375,-1.4438,-1.4438,-1.4448,-1.4449,-1.4472,-1.449,-1.4498,-1.4417,-1.4417,-1.4417,-1.4418,0,0,-1.3661,-1.3774,-1.3785,-1.3826,-1.3911,-1.3958,-1.4016,-1.409,-1.4124,-1.4185,-1.4237,-1.4326,-1.4337,-1.4383,-1.4418,-1.4454,-1.449,-1.4461,-1.4464,-1.4466,-1.4566,-1.4558,-1.4565,-1.4507,-1.4508,-1.451,-1.4561,0,-1.3699,-1.3802,-1.385,-1.3933,-1.3989,-1.4031,-1.4082,-1.4141,-1.4184,-1.4239,-1.4287,-1.435,-1.4359,-1.4387,-1.4425,-1.4478,-1.4511,-1.4475,-1.4558,-1.456,-1.4538,-1.4575,-1.4566,-1.4611,-1.4568,-1.4569,-1.457,0,-1.3757,-1.3818,-1.3906,-1.3987,-1.4012,-1.4056,-1.4129,-1.4181,-1.4249,-1.4279,-1.433,-1.4364,-1.4429,-1.4425,-1.4517,-1.4491,-1.4528,-1.456,-1.4563,-1.4573,-1.4567,-1.4587,-1.4626,-1.4633,-1.4582,-1.4581,-1.458,0,-1.3752,-1.3856,-1.3923,-1.3956,-1.4051,-1.4082,-1.4124,-1.4191,-1.4233,-1.4298,-1.4326,-1.4397,-1.4436,-1.4492,-1.4545,-1.4537,-1.4633,-1.4633,-1.4661,-1.4659,-1.4679,-1.4678,-1.4726,-1.4701,-1.4701,-1.4701,-1.4701,0,-1.379,-1.3843,-1.3923,-1.3964,-1.4025,-1.408,-1.414,-1.4185,-1.4246,-1.4298,-1.4339,-1.4388,-1.4455,-1.4513,-1.4556,-1.4627,-1.4644,-1.4671,-1.4682,-1.4668,-1.4664,-1.4693,-1.4692,-1.4703,-1.4703,-1.4702,-1.4702,0,-1.3795,-1.385,-1.3926,-1.401,-1.4033,-1.4074,-1.4147,-1.419,-1.4236,-1.4302,-1.4321,-1.4393,-1.4463,-1.4522,-1.4615,-1.4644,-1.4718,-1.4731,-1.4694,-1.4701,-1.4726,-1.4723,-1.4795,-1.4808,-1.4773,-1.4773,-1.4774,0,-1.3815,-1.3857,-1.3946,-1.3983,-1.4024,-1.4084,-1.4127,-1.4183,-1.4227,-1.431,-1.4343,-1.4417,-1.4478,-1.459,-1.4652,-1.4724,-1.4739,-1.4759,-1.475,-1.4735,-1.4741,-1.4738,-1.4744,-1.476,-1.476,-1.476,-1.476,0,-1.3847,-1.3873,-1.3932,-1.4002,-1.4052,-1.4111,-1.417,-1.4199,-1.4267,-1.4314,-1.4386,-1.4434,-1.4529,-1.4603,-1.4682,-1.4727,-1.4756,-1.4763,-1.4773,-1.476,-1.4738,-1.4752,-1.4698,-1.4761,-1.4761,-1.4761,-1.4761,-1.4761,-1.3862,-1.3901,-1.397,-1.4036,-1.4087,-1.4142,-1.4187,-1.4238,-1.4299,-1.4379,-1.441,-1.4484,-1.4555,-1.4664,-1.471,-1.4771,-1.4774,-1.4789,-1.4793,-1.4796,-1.4795,-1.4727,-1.4785,-1.4785,-1.4785,-1.4785,-1.4785,0,-1.3897,-1.3943,-1.4003,-1.4085,-1.4137,-1.4159,-1.4226,-1.4269,-1.4334,-1.4396,-1.4456,-1.4541,-1.4612,-1.468,-1.4756,-1.4792,-1.4807,-1.481,-1.4809,-1.4819,-1.4786,-1.477,-1.4797,-1.4797,-1.4797,-1.4797,-1.4797,-1.4797,-1.3921,-1.399,-1.4024,-1.412,-1.4167,-1.4239,-1.4276,-1.4328,-1.4378,-1.447,-1.453,-1.4573,-1.4639,-1.472,-1.4788,-1.4806,-1.4833,-1.4833,-1.4855,-1.4823,-1.4821,-1.4819,-1.4804,-1.4838,-1.4838,-1.4883,-1.4883,-1.4883]},{"header":{"parameterUnit":"m.s-1","parameterCategory":1,"la1":30.2991,"la2":30.254,"lo1":-89.0895,"lo2":-89.0444,"dy":0.0017,"dx":0.0017,"nx":28,"ny":28,"refTime":"2025-07-22T21:00:00:Z","depth":0,"parameterNumber":3,"parameterNumberName":"V-component_of_WINDS"},"data":[0,0,0,0,0,0,0,0,0,0,0,0,0,0,0,0,0,0,0,0,0,0,0,0,0,0,0,0,0,0,0,0,0,0,0,0,0,0,0,0,0,0,0,0,0,0,0,0,0,0,0,0,0,0,0,0,0,0,-1.7787,-1.7786,0,-1.7729,-1.7728,-1.7728,-1.7646,-1.7645,-1.7644,-1.7642,-1.7582,-1.7582,-1.7582,0,0,0,0,0,0,0,0,0,0,0,0,0,-1.7825,-1.7825,-1.7787,-1.7786,-1.7785,-1.7729,-1.7728,-1.7728,-1.7647,-1.7645,-1.7643,-1.7642,-1.7582,-1.7582,-1.7582,0,0,0,0,0,0,0,0,0,0,0,0,0,-1.7792,-1.7825,-1.7787,-1.7738,-1.7733,-1.7729,-1.7728,-1.7727,-1.7647,-1.7645,-1.7643,-1.7641,-1.7582,-1.7582,-1.7582,-1.7621,0,0,-1.758,-1.758,0,0,0,0,0,0,0,0,-1.7794,-1.7791,-1.7746,-1.7741,-1.7736,-1.7693,-1.772,-1.7692,-1.7647,-1.768,-1.7642,-1.764,-1.7621,-1.7617,-1.7611,-1.7618,-1.7615,-1.758,-1.758,-1.758,-1.758,0,0,0,0,0,0,0,-1.7797,-1.7793,-1.7764,-1.7745,-1.7739,-1.7719,-1.7712,-1.7714,-1.7663,-1.7677,-1.7671,-1.7665,-1.7617,-1.7611,-1.7609,-1.7614,-1.758,-1.758,-1.7579,-1.7579,-1.765,-1.7652,0,0,0,0,0,0,-1.7806,-1.7796,-1.7766,-1.7762,-1.7761,-1.772,-1.7712,-1.7709,-1.7662,-1.7653,-1.7667,-1.7661,-1.7613,-1.7609,-1.7606,-1.7649,-1.758,-1.7579,-1.7579,-1.7648,-1.7651,-1.7653,0,0,0,0,0,0,-1.7808,-1.7805,-1.7768,-1.7777,-1.7771,-1.7721,-1.7718,-1.7709,-1.7702,-1.7655,-1.7645,-1.767,-1.7611,-1.7607,-1.7618,-1.7646,-1.7579,-1.7579,-1.7646,-1.7649,-1.7652,-1.7735,0,0,0,0,0,0,-1.7809,-1.7805,-1.782,-1.7778,-1.7771,-1.7781,-1.772,-1.7709,-1.7702,-1.7694,-1.7655,-1.7647,-1.7609,-1.7619,-1.7617,-1.7644,-1.7578,-1.7643,-1.7647,-1.7651,-1.7729,-1.7741,-1.775,0,0,0,0,0,-1.7811,-1.7845,-1.7821,-1.7818,-1.7788,-1.7783,-1.7779,-1.7735,-1.7705,-1.7719,-1.7688,-1.7648,-1.7643,-1.7621,-1.7618,-1.7645,-1.7641,-1.7646,-1.7651,-1.7725,-1.7738,-1.775,0,0,0,0,0,0,-1.7892,-1.7839,-1.7812,-1.7834,-1.7814,-1.7769,-1.7786,-1.7751,-1.7738,-1.7732,-1.7678,-1.7669,-1.7687,-1.7667,-1.7643,-1.768,-1.7636,-1.764,-1.7693,-1.7706,-1.7716,-1.772,-1.7578,0,0,0,0,0,-1.7912,-1.7913,-1.7866,-1.789,-1.7882,-1.7836,-1.7832,-1.78,-1.7777,-1.7767,-1.7737,-1.7716,-1.7709,-1.7706,-1.7697,-1.7726,-1.7716,-1.7743,-1.7753,-1.7762,-1.7767,-1.7781,-1.7792,-1.7669,-1.7669,-1.7669,0,0,-1.7954,-1.7926,-1.7929,-1.7906,-1.7886,-1.7888,-1.7829,-1.7833,-1.7833,-1.7768,-1.7776,-1.7754,-1.7726,-1.7746,-1.7753,-1.773,-1.7799,-1.7768,-1.7776,-1.7776,-1.7787,-1.7798,-1.7809,-1.7672,-1.7672,-1.7671,0,0,-1.8032,-1.8011,-1.8028,-1.801,-1.7981,-1.795,-1.7955,-1.7916,-1.7898,-1.7906,-1.7857,-1.7857,-1.7846,-1.7829,-1.7819,-1.789,-1.7853,-1.7888,-1.7943,-1.7957,-1.7966,-1.7975,-1.8,-1.801,-1.7893,-1.7893,-1.7894,0,-1.8088,-1.8089,-1.8042,-1.8049,-1.804,-1.7981,-1.7999,-1.7983,-1.7953,-1.7948,-1.7922,-1.7909,-1.7886,-1.7901,-1.7918,-1.7912,-1.7915,-1.7893,-1.7969,-1.7977,-1.7984,-1.8008,-1.8017,-1.7898,-1.7897,-1.7897,-1.7897,0,-1.8159,-1.8161,-1.8178,-1.8151,-1.8144,-1.8157,-1.8112,-1.811,-1.8079,-1.8051,-1.806,-1.803,-1.8015,-1.8016,-1.7985,-1.8026,-1.8013,-1.7979,-1.7933,-1.8001,-1.8022,-1.8031,-1.7905,-1.7903,-1.7902,-1.79,0,0,-1.8287,-1.8234,-1.8241,-1.8228,-1.8192,-1.8192,-1.8202,-1.8187,-1.8187,-1.8168,-1.8175,-1.8168,-1.8136,-1.8124,-1.8091,-1.8103,-1.8162,-1.8067,-1.8066,-1.8086,-1.8206,-1.8233,-1.8244,-1.8137,-1.8138,-1.814,-1.8209,0,-1.8358,-1.8372,-1.833,-1.8354,-1.8355,-1.8299,-1.8307,-1.8286,-1.826,-1.8256,-1.8227,-1.8223,-1.8181,-1.8174,-1.8183,-1.8153,-1.8185,-1.8147,-1.8143,-1.8143,-1.8152,-1.8255,-1.8283,-1.835,-1.8217,-1.8218,-1.8219,0,-1.8443,-1.8429,-1.8454,-1.8417,-1.8415,-1.8424,-1.8407,-1.8404,-1.8379,-1.8359,-1.8347,-1.8308,-1.8314,-1.8271,-1.8279,-1.8254,-1.8249,-1.8234,-1.8235,-1.8234,-1.8186,-1.8257,-1.837,-1.838,-1.8232,-1.8231,-1.823,0,-1.8534,-1.8521,-1.8535,-1.8525,-1.8482,-1.849,-1.8472,-1.8444,-1.8438,-1.8423,-1.8419,-1.8405,-1.8397,-1.8387,-1.8345,-1.8317,-1.8359,-1.8311,-1.8342,-1.8344,-1.8354,-1.8354,-1.8468,-1.835,-1.835,-1.835,-1.835,0,-1.8618,-1.8636,-1.8575,-1.8584,-1.8601,-1.8553,-1.8572,-1.8548,-1.8524,-1.8527,-1.8477,-1.848,-1.8425,-1.8423,-1.839,-1.8402,-1.8399,-1.8383,-1.8374,-1.8387,-1.839,-1.8384,-1.8379,-1.8353,-1.8352,-1.8352,-1.8351,0,-1.8723,-1.8683,-1.8694,-1.8652,-1.8642,-1.8658,-1.8622,-1.8628,-1.8598,-1.8602,-1.86,-1.8554,-1.8548,-1.8506,-1.849,-1.8468,-1.8492,-1.8474,-1.8502,-1.8496,-1.853,-1.8527,-1.8645,-1.8658,-1.8532,-1.8533,-1.8534,0,-1.8779,-1.8792,-1.8752,-1.875,-1.8735,-1.8733,-1.8726,-1.8679,-1.8674,-1.8646,-1.8656,-1.8646,-1.8635,-1.8628,-1.8593,-1.8581,-1.8563,-1.8605,-1.856,-1.8574,-1.8564,-1.8564,-1.8565,-1.8614,-1.8616,-1.8617,-1.8618,0,-1.8884,-1.8864,-1.8857,-1.8843,-1.8837,-1.8824,-1.8808,-1.8809,-1.8756,-1.8754,-1.8747,-1.8739,-1.8724,-1.8715,-1.8696,-1.8677,-1.864,-1.8633,-1.8639,-1.8653,-1.8669,-1.8661,-1.8528,-1.863,-1.8629,-1.8628,-1.8627,-1.8627,-1.8967,-1.8975,-1.8949,-1.8942,-1.8925,-1.8911,-1.8915,-1.8886,-1.888,-1.8864,-1.8836,-1.8834,-1.8808,-1.878,-1.8764,-1.8761,-1.8739,-1.8749,-1.8751,-1.8754,-1.8762,-1.8669,-1.8758,-1.8757,-1.8757,-1.8757,-1.8756,0,-1.9069,-1.9049,-1.9044,-1.9023,-1.9019,-1.8984,-1.8964,-1.8962,-1.8961,-1.894,-1.8931,-1.8924,-1.8915,-1.8879,-1.8866,-1.8871,-1.8853,-1.8869,-1.8869,-1.8865,-1.8782,-1.8778,-1.8884,-1.8884,-1.8884,-1.8884,-1.8884,-1.8884,-1.9122,-1.9135,-1.9112,-1.9115,-1.9095,-1.9093,-1.9085,-1.9071,-1.9054,-1.9049,-1.9042,-1.9018,-1.8992,-1.8976,-1.8966,-1.8956,-1.8954,-1.8976,-1.896,-1.8883,-1.8871,-1.8859,-1.8855,-1.8976,-1.8976,-1.9043,-1.9044,-1.9044]}]]